www.pogodaiklimat.ru

Погода и климат >> Архив погоды >> Россия >> Сахалинская область >> Мыс Терпения


АРХИВ ПОГОДЫ на Мысе Терпения

Время (UTC), дата Ветер
(напр.,м/с)
 
Видим.   Явления Облачность Т
(С)
Тd
(С)
f
(%)
Тe
(С)
Тes
(С)
Комфортность P
(гПа)
Po
(гПа)
Тmin
(С)
Tmax
(С)
R
(мм)
R24
(мм)
S
(см)
00 16.04 С 12-15
{16}
20 км 10/10 300 м
[Cb cap]
-0.1 -0.6 96 -9 -9 1003.2 1002.4 -0.2
03 16.04 С 11-15
{18}
20 км 9/9 300 м
[Cb cap]
+0.3 -0.5 94 -8 -8 1003.9 1003.0
06 16.04 С 9-12
{15}
20 км 9/9 300 м
[Cb cap]
+0.6 -0.3 94 -7 -7 1004.4 1003.5
09 16.04 СЗ 5-7
{14}
20 км 10/8 300 м
[Cb cap Ci fib]
+0.7 -0.2 94 -5 -5 1005.2 1004.3 +0.7
12 16.04 СЗ 5-7
{8}
10 км дымка 6/6 600 м
[Sc]
-0.2 -0.7 96 -7 -7 1007.0 1006.2
15 16.04 СВ 4-5
{7}
н/о н/о -0.1 -0.6 96 -6 -6 1005.7 1004.8
18 16.04 ЮВ 2-3
{5}
н/о н/о -1.4 -2.0 96 -5 -5 1004.6 1003.7
21 16.04 ЮВ 5-6
{6}
20 км 10/10 600 м
[Sc]
-2.5 -3.3 94 -9 -9 1003.8 1002.9 -2.5 0
00 17.04 Ю 4-6
{6}
20 км 8/8 600 м
[Sc]
-0.7 -1.4 95 -7 -5 1003.8 1002.9 -2.6
03 17.04 Ю 5-6
{7}
20 км 10/5 600 м
[Sc Ci]
+0.5 -0.0 96 -6 -3 1003.1 1002.2
06 17.04 ЮЗ 5-7
{9}
20 км 10/3 600 м
[Sc Ci]
+3.1 +0.9 85 -2 -0 1004.0 1003.2
09 17.04 С 3-4
{7}
20 км 10/4 600 м
[Sc Ci]
+2.2 +0.3 87 -2 -2 1006.8 1005.9 +3.5
12 17.04 СВ 7-8
{8}
20 км 10/8 600 м
[Sc Ci fib]
-2.1 -2.8 95 -10 -10 1009.8 1008.9
15 17.04 В 4-5
{8}
н/о н/о -1.8 -2.5 95 -8 -8 1011.1 1010.2
18 17.04 В 4-5
{7}
н/о н/о -1.9 -2.6 95 -8 -8 1010.8 1010.0
21 17.04 ЮВ 6-8
{8}
20 км 10/10 600 м
[Sc]
-1.2 -1.9 95 -8 -8 1011.2 1010.3 -2.3 0
00 18.04 ЮВ 5-7
{9}
20 км 10/3 600 м
[Sc Ci]
+0.6 -0.0 96 -6 -2 1011.6 1010.7
03 18.04 ЮВ 7-9
{9}
20 км 3/0
[Ci fib]
+2.2 -0.5 82 -4 -0 1011.0 1010.1
06 18.04 ЮВ 7-10
{10}
20 км 10/0
[Ci]
+1.7 -0.7 84 -5 -3 1010.5 1009.6
09 18.04 ЮВ 7-12
{12}
20 км 10/0
[Ac cast Ci]
-0.1 -1.6 90 -7 -7 1009.3 1008.4 +2.9
12 18.04 ЮВ 9-13
{13}
20 км 10/0
[Ci fib]
-0.1 -1.6 90 -8 -8 1009.9 1009.0
21 18.04 ЮВ 7-11
{14}
20 км 10/10 600 м
[Sc]
-0.2 -1.4 92 -7 -7 1008.0 1007.1 -0.8 0
00 19.04 ЮВ 8-12
{12}
20 км 10/10 600 м
[Sc]
+0.6 -1.0 89 -7 -7 1008.1 1007.2
03 19.04 ЮВ 9-13
{15}
20 км 10/10 600 м
[Sc]
+0.6 -0.9 90 -7 -7 1007.4 1006.5
06 19.04 ЮВ 9-13
{15}
20 км 10/10 600 м
[Sc]
+0.6 -0.8 90 -7 -7 1007.0 1006.1
09 19.04 ЮВ 7-11
{13}
10 км слаб. ливневой дождь 10/10 300 м
[Cb cap]
-0.2 -0.9 95 -8 -8 1007.0 1006.1 +1.1 0.3
12 19.04 Ю 5-7
{11}
10 км слаб. ливневой снег {метель} 10/10 300 м
[Cb cap]
-0.4 -1.1 95 -7 -7 1008.0 1007.1
15 19.04 Ю 4-5
{7}
н/о н/о -0.5 -1.1 96 -6 -6 1008.5 1007.6
21 19.04 Ю 4-5
{6}
20 км 10/0
[Ac cast Ci]
-2.8 -3.9 92 -9 -8 1011.1 1010.2 -3.2 4 5
00 20.04 Ю 4-5
{5}
20 км 10/0
[Ci]
-0.3 -2.8 83 -6 0 1012.3 1011.5
03 20.04 ЮВ 3-4
{6}
20 км 3/0
[Ci]
+0.7 -1.2 87 -4 +7 1013.4 1012.5
06 20.04 ЮВ 2-4
{5}
20 км 10/8 600 м
[Sc Ci fib]
-0.8 -1.8 93 -5 -4 1013.5 1012.6
09 20.04 СВ 3-4
{4}
20 км 10/4 600 м
[Sc Ac cast Ci fib]
-1.1 -1.9 94 -6 -6 1013.7 1012.8 +1.1
12 20.04 СВ 2-2
{5}
10 км слаб. ливневой снег 10/10 300 м
[Cb cap]
-1.3 -1.9 96 -5 -5 1014.3 1013.4
15 20.04 С 2-3
{3}
н/о н/о -1.2 -1.8 96 -5 -5 1014.1 1013.2
21 20.04 СВ 2-2
{3}
10 км слаб. ливневой снег 10/10 300 м
[Cb cap]
-1.2 -1.8 96 -5 -5 1013.2 1012.3 -1.5 0.2 0
00 21.04 штиль 0
{3}
20 км {ливн. осадки} 10/10 300 м
[Cb cap]
-0.2 -0.7 96 -2 -2 1012.7 1011.8
03 21.04 ЮЗ 1-3
{4}
20 км 10/9 300 м
[Cb cap Ci fib]
+2.1 -0.3 84 0 +2 1011.7 1010.8
06 21.04 Ю 4-5
{6}
20 км 10/8 600 м
[Sc Ci fib]
-0.6 -1.5 94 -6 -6 1011.1 1010.2
09 21.04 Ю 4-5
{6}
20 км 10/6 600 м
[Sc Ci fib]
-2.1 -2.7 96 -8 -8 1011.2 1010.3 +2.7 0.0
12 21.04 Ю 4-5
{6}
20 км 10/10 600 м
[Sc]
-1.8 -2.8 93 -8 -8 1012.0 1011.1
15 21.04 Ю 4-5
{7}
н/о н/о -1.1 -2.1 93 -7 -7 1012.3 1011.4
21 21.04 ЮЗ 5-6
{8}
20 км 4/0
[Ac lent Ci fib]
-0.7 -1.6 94 -7 -6 1011.7 1010.8 -2.1 0
00 22.04 Ю 6-7
{8}
20 км 1/0
[Ci fib]
+1.9 -0.9 82 -4 0 1012.0 1011.1
03 22.04 Ю 6-7
{8}
20 км 3/0
[Ac cast Ci fib]
+2.2 -0.7 81 -4 +1 1011.7 1010.8
06 22.04 Ю 4-6
{7}
20 км 10/5 300 м
[Cb cap Ac cast Ci]
+2.0 -0.4 84 -3 -2 1011.8 1010.9
09 22.04 ЮЗ 6-7
{7}
20 км 3/0
[Ac lent Ci fib]
+0.2 -1.0 92 -7 -7 1012.3 1011.4 +3.4
12 22.04 З 7-7
{8}
20 км 4/0
[Ci fib]
+0.9 -2.1 80 -6 -6 1014.0 1013.2
15 22.04 СЗ 8-9
{11}
н/о н/о +1.5 -3.8 68 -5 -5 1015.6 1014.7
18 22.04 З 8-8
{9}
н/о н/о +1.0 -2.9 75 -6 -6 1016.5 1015.6
21 22.04 штиль 0
{8}
20 км 1/0
[Ci fib]
+2.8 -2.3 69 +2 +4 1017.3 1016.4 -0.6 0

 

Местоположение метеостанции Мыс Терпения (Сахалинская область, Россия): широта 48.65 долгота 144.70 высота над уровнем моря 6 м.

В архиве по умолчанию представлена погода на Мысе Терпения за последнюю неделю. Архивные данные за месяц целиком и за предыдущие месяцы, начиная с января 2011 года, Вы можете получить, выбрав интересующий диапазон дат из раскрывающегося списка и нажав кнопку "Ввод!".


*Определитесь, кто Вы:
робот инопланетянин человек

Внимание! Время в таблицах - всемирное. Для получения местного времени необходимо прибавить поправку, которая равна 11 ч.

Смотрите также архив погоды в соседних городах и на ближайших метеорологических станциях:

Погода в Поронайске (Сахалинская область, Россия) (133 км)
Погода в Макарове (Сахалинская область, Россия) (147 км)
Погода в Первомайском (Сахалинская область, Россия) (183 км)
Погода в Стародубском (Сахалинская область, Россия) (196 км)
Погода в Ильинском (Сахалинская область, Россия) (199 км)
Погода в Углегорске (Сахалинская область, Россия) (203 км)
Погода в Долинске (Сахалинская область, Россия) (204 км)
Погода в Пограничном (Сахалинская область, Россия) (208 км)
Погода в Мальково (Сахалинская область, Россия) (233 км)
Погода в Оноре (Сахалинская область, Россия) (237 км)

Пояснения к столбцам:

Ветер - указаны скорость ветра в м/с - средняя за 10 мин, порывы в срок и между сроками (в фигурных скобках) и направление, откуда дует ветер: С - северный, СВ - северо-восточный, В - восточный, ЮВ - юго-восточный, Ю - южный, ЮЗ - юго-западный, З - западный, СЗ - северо-западный.
Видимость - горизонтальная дальность видимости в метрах или километрах. При видимости от 1 до 10 км при отсутствии осадков обычно наблюдается дымка, при ухудшении видимости до 1 км и менее - туман. В сухую погоду видимость может ухудшаться дымом, пылью или мглою.
Явления - указаны атмосферные явления, наблюдавшиеся в срок или в последний час перед сроком; фигурными скобками обозначены явления, наблюдавшиеся между сроками (за 1-3 часа до срока); квадратными скобками обозначены град или гололедные отложения с указанием их диаметра в мм.
Облачность - указаны через наклонную черту общая и нижняя облачность в баллах и высота нижней границы облаков в метрах; квадратными скобками обозначены формы облаков: Ci - перистые, Cs - перисто-слоистые, Cc - перисто-кучевые, Ac - высококучевые, As - высокослоистые, Sc - слоисто-кучевые, Ns - слоисто-дождевые, Cu - кучевые, Cb - кучево-дождевые. Подробнее классификацию облаков см. в Атласе облаков (PDF).
T - Температура воздуха - температура, измеренная на высоте 2 м над землей.
Td - Температура точки росы - температура, при понижении до которой содержащийся в воздухе водяной пар достигнет насыщения.
f - Относительная влажность воздуха - влажноcть воздуха, измеренная на высоте 2 м над землей.
Te - Эффективная температура - температура, которую ощущает одетый по сезону человек в тени. Характеристика душности погоды. При расчете учитывается влияние влажности воздуха и скорости ветра на теплоощущения человека.
Tes - Эффективная температура на солнце - температура, которую ощущает человек, с поправкой на солнечный нагрев. Характеристика знойности погоды. Зависит от высоты солнца над горизонтом, облачности и скорости ветра. Ночью, в пасмурную погоду, а также при ветре 12 м/с и более поправка равна нулю.
P - Атмосферное давление - приведенное к уровню моря атмосферное давление.
Po - Атмосферное давление - измеренное на уровне метеостанции атмосферное давление.
Tmin - Минимальная температура - минимум температуры воздуха на высоте 2 м над землей.
Tmax - Максимальная температура - максимум температуры воздуха на высоте 2 м над землей.
R - Количество осадков - Количество выпавших осадков за период времени, мм. При наведении курсора мыши на число - период времени, за который выпало указанное количество осадков.
R24 - Количество осадков - Количество выпавших осадков за 24 часа, мм.
S - Снежный покров - Высота снежного покрова, см. При наведении курсора мыши на число - состояние снежного покрова и степень покрытия местности в баллах.